Grand Rapids, MI

7:29 AM EDT on May 23, 2017 (GMT -0400)
Gerald R. Ford International

Weather History for KGRR - November, 2013

Change the Weather History Date:

Wednesday, November 6, 2013

  Actual Average Record
Temperature  
Mean Temperature 50 °F 44 °F  
Max Temperature 57 °F 52 °F 77 °F (1975)
Min Temperature 42 °F 36 °F 9 °F (1951)
Degree Days  
Heating Degree Days 15 21  
Month to date heating degree days 104 121  
Since 1 July heating degree days 618 713  
Cooling Degree Days 0 0  
Month to date cooling degree days 0 0  
Year to date cooling degree days 767 699  
Moisture  
Dew Point 48 °F    
Average Humidity 77    
Maximum Humidity 93    
Minimum Humidity 61    
Precipitation  
Precipitation 1.19 in 0.12 in 1.29 in (1941)
Month to date precipitation 1.59 0.73  
Year to date precipitation 40.62 32.99  
Snow  
Snow 0.00 in 0.10 in 4.00 in (1988)
Month to date snowfall 0.0 0.6  
Since 1 July snowfall T 1.1  
Since 1 September snowfall T 1.1  
Snow Depth 0.00 in    
Sea Level Pressure  
Sea Level Pressure 29.88 in    
Wind  
Wind Speed 14 mph (SW)    
Max Wind Speed 24 mph    
Max Gust Speed 31 mph    
Visibility 6 miles    
Events Rain    
T = Trace of Precipitation, MM = Missing Value Source: NWS Daily Summary

Daily Weather History Graph

Daily Weather History Graph

Search for Another Location

Airport or City:

Trip Planner

Search our weather history database for the weather conditions in past years. The results will help you decide how hot, cold, wet, or windy it might be!

Date:

Astronomy

Nov. 06, 2013 Rise Set
Actual Time 7:23 AM EST 5:27 PM EST
Civil Twilight 6:53 AM EST 5:57 PM EST
Nautical Twilight 6:19 AM EST 6:31 PM EST
Astronomical Twilight 5:46 AM EST 7:04 PM EST
Moon 10:39 AM EST (11/6) 8:29 PM EST (11/6)
Length of Visible Light 11h 04m
Length of Day
10h 04m
Waxing Crescent, 13% of the Moon is Illuminated
Nov 6
Waxing Crescent
Nov 10
First Quarter
Nov 17
Full
Nov 25
Last Quarter
Dec 2
New

Hourly Weather History & Observations

Time (EST) Temp. Windchill Dew Point Humidity Pressure Visibility Wind Dir Wind Speed Gust Speed Precip Events Conditions
12:53 AM 55.9 °F - 43.0 °F 62% 30.05 in 10.0 mi South 16.1 mph 23.0 mph 0.00 in Rain Light Rain
1:53 AM 53.1 °F - 45.0 °F 74% 30.04 in 6.0 mi South 19.6 mph 29.9 mph 0.00 in Rain Light Rain
2:13 AM 51.8 °F - 46.4 °F 82% 30.02 in 10.0 mi South 13.8 mph - 0.00 in Rain Light Rain
2:53 AM 52.0 °F - 46.9 °F 83% 29.99 in 9.0 mi SSE 11.5 mph - 0.01 in Rain Light Rain
3:53 AM 52.0 °F - 46.0 °F 80% 29.96 in 7.0 mi South 10.4 mph - 0.00 in Rain Light Rain
4:53 AM 51.1 °F - 46.9 °F 86% 29.92 in 9.0 mi SSE 8.1 mph - 0.09 in Rain Light Rain
5:53 AM 53.1 °F - 48.0 °F 83% 29.89 in 4.0 mi South 11.5 mph - 0.14 in Rain Rain
6:06 AM 53.6 °F - 48.2 °F 82% 29.88 in 9.0 mi South 11.5 mph - 0.02 in Rain Light Rain
6:50 AM 53.6 °F - 50.0 °F 88% 29.86 in 3.0 mi SSW 8.1 mph - 0.05 in Rain Rain
6:53 AM 53.1 °F - 50.0 °F 89% 29.87 in 2.5 mi SSW 9.2 mph - 0.05 in Rain Rain
7:00 AM 53.6 °F - 50.0 °F 88% 29.86 in 2.5 mi SSW 6.9 mph - 0.02 in Rain Light Rain
7:53 AM 55.0 °F - 52.0 °F 89% 29.86 in 2.5 mi SSW 16.1 mph 19.6 mph 0.22 in Rain Rain
8:49 AM 55.4 °F - 51.8 °F 88% 29.84 in 6.0 mi SSW 20.7 mph 26.5 mph 0.10 in Rain Light Rain
8:53 AM 55.9 °F - 52.0 °F 87% 29.85 in 6.0 mi SSW 15.0 mph 26.5 mph 0.10 in Rain Light Rain
9:21 AM 55.4 °F - 53.6 °F 94% 29.84 in 3.0 mi SSW 17.3 mph 24.2 mph 0.04 in Rain Rain
9:53 AM 55.9 °F - 53.1 °F 90% 29.84 in 5.0 mi SSW 17.3 mph 24.2 mph 0.08 in Rain Light Rain
10:11 AM 55.4 °F - 53.6 °F 94% 29.84 in 2.0 mi SSW 15.0 mph 24.2 mph 0.03 in Rain Heavy Rain
10:44 AM 55.4 °F - 53.6 °F 94% 29.82 in 3.0 mi SSW 12.7 mph 23.0 mph 0.10 in Rain Rain
10:53 AM 55.9 °F - 53.1 °F 90% 29.83 in 3.0 mi SSW 15.0 mph 23.0 mph 0.12 in Rain Light Rain
11:24 AM 55.4 °F - 53.6 °F 94% 29.82 in 2.5 mi SSW 15.0 mph 20.7 mph 0.04 in Rain Rain
11:45 AM 55.4 °F - 53.6 °F 94% 29.81 in 4.0 mi SW 12.7 mph 20.7 mph 0.07 in Rain Light Rain
11:53 AM 55.9 °F - 53.1 °F 90% 29.81 in 3.0 mi SW 15.0 mph 23.0 mph 0.08 in Rain Light Rain
12:08 PM 55.4 °F - 53.6 °F 94% 29.80 in 2.0 mi SSW 12.7 mph - 0.02 in Rain Light Rain
12:53 PM 55.9 °F - 53.1 °F 90% 29.78 in 4.0 mi SSW 13.8 mph 20.7 mph 0.07 in Rain Light Rain
1:19 PM 57.2 °F - 53.6 °F 88% 29.77 in 10.0 mi SW 13.8 mph - 0.02 in Rain Light Rain
1:53 PM 57.0 °F - 53.1 °F 87% 29.75 in 10.0 mi SSW 18.4 mph - 0.02 in   Overcast
2:37 PM 55.4 °F - 53.6 °F 94% 29.75 in 1.8 mi SSW 16.1 mph 23.0 mph 0.01 in Rain Rain
2:48 PM 55.4 °F - 53.6 °F 94% 29.76 in 1.5 mi SW 16.1 mph 23.0 mph 0.04 in Rain Rain
2:53 PM 55.9 °F - 53.1 °F 90% 29.77 in 1.8 mi SW 17.3 mph 23.0 mph 0.05 in Rain Rain
3:05 PM 55.4 °F - 53.6 °F 94% 29.77 in 5.0 mi SW 17.3 mph 28.8 mph 0.01 in Rain Light Rain
3:20 PM 53.6 °F - 50.0 °F 88% 29.78 in 9.0 mi West 20.7 mph 31.1 mph 0.02 in Rain Light Rain
3:53 PM 50.0 °F - 46.0 °F 86% 29.81 in 3.0 mi West 19.6 mph 25.3 mph 0.02 in Rain Light Rain
3:59 PM 50.0 °F - 46.4 °F 87% 29.80 in 2.5 mi West 20.7 mph 26.5 mph 0.00 in Rain Light Rain
4:24 PM 48.2 °F - 44.6 °F 87% 29.83 in 7.0 mi West 20.7 mph 25.3 mph 0.01 in Rain Light Rain
4:43 PM 46.4 °F 39.2 °F 42.8 °F 87% 29.85 in 2.0 mi West 18.4 mph 27.6 mph 0.01 in Rain Light Rain
4:53 PM 46.9 °F - 44.1 °F 90% 29.87 in 2.0 mi WNW 13.8 mph 25.3 mph 0.01 in Rain Light Rain
5:08 PM 46.4 °F 39.8 °F 42.8 °F 87% 29.86 in 4.0 mi WNW 16.1 mph 25.3 mph 0.00 in Rain Light Rain
5:53 PM 45.0 °F 38.5 °F 42.1 °F 90% 29.91 in 6.0 mi WNW 13.8 mph 23.0 mph 0.00 in Rain Light Rain
6:53 PM 44.1 °F 37.4 °F 39.9 °F 85% 29.96 in 10.0 mi WNW 13.8 mph 23.0 mph 0.00 in   Overcast
7:53 PM 43.0 °F 36.0 °F 39.0 °F 86% 29.99 in 10.0 mi WNW 13.8 mph 20.7 mph 0.00 in   Overcast
8:53 PM 43.0 °F 36.4 °F 37.9 °F 82% 30.01 in 10.0 mi WNW 12.7 mph - N/A   Mostly Cloudy
9:53 PM 43.0 °F 36.0 °F 37.0 °F 80% 30.03 in 10.0 mi WNW 13.8 mph - N/A   Overcast
10:53 PM 42.1 °F 36.6 °F 37.0 °F 82% 30.04 in 10.0 mi West 9.2 mph - N/A   Overcast
11:53 PM 42.1 °F 36.6 °F 36.0 °F 79% 30.03 in 10.0 mi NW 9.2 mph - 0.00 in   Overcast